Simultaneous Nadir Overpasses (SNOs) Predictions

Prediction of SNOs between GOES-16 and LANDSAT-8 Satellite Orbit:

Table of predicted SNOs for the next 14.0 days since TLE Epoch: 2/5/2022
Index Date Time (GOES-16) GOES-16 Lat,Lon LANDSAT-8 Lat,Lon Distance(km) Time Diff (sec)
1 02/06/2022 03:03:39 -0.03, -75.18 0.43, -73.18 227.87 80
2 02/06/2022 15:27:34 0.03, -75.20 0.69, -78.34 356.39 80
3 02/08/2022 15:15:22 0.03, -75.20 0.07, -75.38 19.92 80
4 02/10/2022 15:00:30 0.02, -75.21 -0.55, -72.42 316.98 80
5 02/11/2022 03:24:34 -0.03, -75.20 -0.55, -77.61 274.92 80
6 02/13/2022 03:09:42 -0.02, -75.21 0.09, -74.66 62.50 80
7 02/15/2022 02:57:30 -0.03, -75.22 0.74, -71.70 400.61 80
8 02/15/2022 15:21:24 0.03, -75.24 0.38, -76.85 183.27 80
9 02/17/2022 15:09:13 0.03, -75.27 -0.28, -73.90 155.71 80
10 02/18/2022 03:30:35 -0.03, -75.26 -0.88, -79.08 435.53 80
